Location: Columbia
(38.9520°N, 92.3340°W)
Time: 14:08:08
(UTC-05:00)

CZ-2C R/B - Visible Passes

Search period start: 27 July 2016 00:00
Search period end: 06 August 2016 00:00
Orbit: 703 x 909 km, 98.2° (Epoch: 26 July)

Date Brightness Start Highest point End Pass type
(mag) Time Alt. Az. Time Alt. Az. Time Alt. Az.
27 Jul 5.5 00:04:53 10° ENE 00:05:13 10° ENE 00:06:03 10° NE visible
27 Jul 3.8 01:45:58 46° NNW 01:45:58 46° NNW 01:49:22 10° NNW visible
28 Jul 4.0 01:20:59 41° NNE 01:20:59 41° NNE 01:24:28 10° N visible
28 Jul 5.2 03:02:04 12° WNW 03:02:04 12° WNW 03:02:49 10° NW visible
29 Jul 4.5 00:56:01 28° NE 00:56:01 28° NE 00:59:18 10° N visible
29 Jul 4.8 02:37:06 20° WNW 02:37:06 20° WNW 02:39:04 10° NW visible
30 Jul 5.0 00:31:03 18° ENE 00:31:03 18° ENE 00:33:46 10° NNE visible
30 Jul 4.4 02:12:07 30° NW 02:12:07 30° NW 02:14:45 10° NNW visible
31 Jul 5.5 00:06:05 10° ENE 00:06:05 10° ENE 00:06:54 10° NE visible
31 Jul 4.1 01:47:09 38° NNW 01:47:09 38° NNW 01:50:06 10° NNW visible
01 Aug 4.2 01:22:10 36° NNE 01:22:10 36° NNE 01:25:13 10° N visible
01 Aug 5.4 03:03:15 10° WNW 03:03:15 10° WNW 03:03:24 10° WNW visible
02 Aug 4.6 00:57:12 27° NE 00:57:12 27° NE 01:00:04 10° N visible
02 Aug 5.0 02:38:16 17° NW 02:38:16 17° NW 02:39:45 10° NW visible
03 Aug 5.1 00:32:14 18° NE 00:32:14 18° NE 00:34:33 10° NNE visible
03 Aug 4.6 02:13:18 25° NW 02:13:18 25° NW 02:15:27 10° NNW visible
04 Aug 5.5 00:07:15 10° NE 00:07:15 10° NE 00:07:47 10° NE visible
04 Aug 4.4 01:48:20 32° NNW 01:48:20 32° NNW 01:50:50 10° NNW visible
05 Aug 4.5 01:23:21 31° N 01:23:21 31° N 01:25:58 10° N visible
